Regional Weather Roundup
Issued by NWS

Home | Current Version | Previous Version | Graphics & Text | Print | Product List | Glossary On
Versions: 1 2 3 4 5 6 7 8 9 10 11 12 13 14 15 16 17 18 19 20 21 22 23 24 25 26 27 28 29 30 31 32 33 34 35 36 37 38 39 40 41 42 43 44 45 46 47 48 49 50
000
ASUS43 KMKX 230200
RWRWI

WISCONSIN REGIONAL WEATHER ROUNDUP
NATIONAL WEATHER SERVICE MILWAUKEE/SULLIVAN WI
900 PM CDT TUE MAY 22 2018

NOTE: "FAIR" INDICATES FEW OR NO CLOUDS BELOW 12,000 FEET WITH NO
SIGNIFICANT WEATHER AND/OR OBSTRUCTIONS TO VISIBILITY.

WIZ001-002-006>008-014>016-023>028-230300-
NORTHWEST WISCONSIN

CITY           SKY/WX    TMP DP  RH WIND       PRES   REMARKS
SUPERIOR ARPT  FAIR      72  54  53 SW5       30.01R
ASHLAND        FAIR      64  56  75 SW3       30.02R
HAYWARD        FAIR      65  55  70 CALM      30.05R
SIREN          FAIR      66  56  70 CALM      30.05S
CUMBERLAND     FAIR      66  52  59 CALM      30.05S
RICE LAKE      FAIR      67  56  67 CALM      30.06S
CHETEK         FAIR      65  57  75 SE3       30.05S
LADYSMITH      FAIR      66  55  68 SW5       30.07S
EAU CLAIRE     NOT AVBL
MENOMONIE      FAIR      65  56  72 SE3       30.05S
NEW RICHMOND   FAIR      67  52  58 CALM      30.04S
OSCEOLA        FAIR      68  53  58 CALM      30.06S
$$

WIZ003>005-009-010-017-018-230300-
NORTH CENTRAL WISCONSIN

CITY           SKY/WX    TMP DP  RH WIND       PRES   REMARKS
MANITOWISH WTR FAIR      66  53  62 CALM      30.05R
ARBOR VITAE    CLOUDY    72  56  56 CALM      30.04S
WOODRUFF       CLOUDY    72  56  56 CALM      30.04S
RHINELANDER    MOCLDY    67  56  67 W5        30.05R
EAGLE RIVER    CLOUDY    69  48  47 NW3       30.04R
LAND O LAKES   FAIR      63  41  45 CALM      30.06R
PHILLIPS       FAIR      67  56  67 CALM      30.04S
TOMAHAWK       MOCLDY    67  54  63 CALM      30.05R
MEDFORD        FAIR      65  55  72 SW5       30.06S
MERRILL        MOCLDY    67  58  72 SW7       30.06R
$$

WIZ029-030-035-036-043>047-230300-
CENTRAL WISCONSIN

CITY           SKY/WX    TMP DP  RH WIND       PRES   REMARKS
WAUSAU         FAIR      65  57  75 W6        30.04R
MOSINEE        CLEAR     63  57  82 W6        30.07R
MARSHFIELD     FAIR      61  57  87 W7        30.06S
STEVENS POINT  FAIR      65  56  72 W3        30.06S
WAUPACA        FAIR      68  57  69 W5        30.05R
WAUTOMA        FAIR      64  58  80 W6        30.06R
WISC RAPIDS    FAIR      62  57  83 SW5       30.08R
CAMP DOUGLAS   NOT AVBL
$$

WIZ011>013-019>022-031-037>040-048>050-230300-
NORTHEAST WISCONSIN

CITY           SKY/WX    TMP DP  RH WIND       PRES   REMARKS
ANTIGO         FAIR      64  56  77 W6        30.05R
SHAWANO        FAIR      71  57  61 SW3       30.02R
OCONTO         FAIR      66  56  69 S3        30.01R
STURGEON BAY   FAIR      60  52  74 S6        30.03R
GREEN BAY      FAIR      66  59  78 S6        30.03R
MANITOWOC      FAIR      50  47  89 CALM      30.05R
APPLETON       PTCLDY    66  54  63 SW7       30.03R
CLINTONVILLE   FAIR      69  55  62 W5        30.03R
OSHKOSH        FAIR      66  58  75 CALM      30.04S
$$

WIZ032>034-041-042-053>061-230300-
SOUTHWEST WISCONSIN

CITY           SKY/WX    TMP DP  RH WIND       PRES   REMARKS
LA CROSSE      FAIR      64  58  80 CALM      30.06S
SPARTA         CLOUDY    62  57  84 CALM      30.09R
VIROQUA        FAIR      61  59  92 CALM      30.08R
BOSCOBEL       FAIR      62  59  90 CALM      30.07R
PRAIRIE DU CHI FAIR      67  58  72 E5        30.05S
PLATTEVILLE    MOCLDY    65  62  90 E5        30.07R
$$

WIZ056-057-062-063-064-067-068-230300-
SOUTH CENTRAL WISCONSIN

CITY           SKY/WX    TMP DP  RH WIND       PRES   REMARKS
REEDSBURG      CLOUDY    64  59  85 N5        30.07R
BARABOO/DELLS  CLOUDY    63  56  78 CALM      30.08R
LONE ROCK      CLOUDY    64  61  90 CALM      30.07R
MINERAL POINT  FAIR      63  61  94 NE3       30.08R
MADISON        FAIR      61  58  90 W3        30.07R
MIDDLETON      FAIR      60  58  91 W5        30.08R
WATERTOWN      FAIR      60  59  96 CALM      30.06S
MONROE         CLOUDY    63  57  82 N5        30.07S
JANESVILLE     MOCLDY    64  57  77 CALM      30.07R
$$

WIZ051-052-058>065-066-070>072-230300-
SOUTHEAST WISCONSIN

CITY           SKY/WX    TMP DP  RH WIND       PRES   REMARKS
MILWAUKEE      FAIR      56  51  84 CALM      30.07R
WAUKESHA       CLEAR     57  54  88 W5        30.08R
MILWAUKEE/TIMM CLEAR     59  52  77 W3        30.07R
RACINE         FAIR      53  49  86 CALM      30.08S
BURLINGTON     MOCLDY    63  56  79 CALM      30.07R
KENOSHA        FAIR      55  50  83 S3        30.07R
FOND DU LAC    FAIR      61  57  87 SW5       30.05R
SHEBOYGAN      LGT RAIN  57  54  89 S3        30.05R
WEST BEND      FAIR      61  57  88 CALM      30.06R
JUNEAU         FAIR      61  57  88 CALM      30.07S
$$

LSZ147-162-230300-
LAKE SUPERIOR

STATION/POSITION TIME  TEMP    WIND        PRES    WAVE
                       AIR SEA DIR/SP/G            HT/PER
                 (UTC) (F)     (DEG/KT/KT) (MB)    (FT/S)
W MID LAKE BUOY  0050   48 36  210/  4/  4 1016.0S   0
DEVILS ISLAND    0100   69     200/  7/  8 1015.8R
SAXON HARBOR     0140   65     190/  2/  2 1015.6S
$$

LMZ867-665-643>646-230300-
LAKE MICHIGAN

STATION/POSITION TIME  TEMP    WIND        PRES    WAVE
                       AIR SEA DIR/SP/G            HT/PER
                 (UTC) (F)     (DEG/KT/KT) (MB)    (FT/S)
N MID LAKE BUOY  0140   41 37  210/  8/  8 1016.6R
NORTHPORT PIER   0140   54     150/  2/  3 1016.6R
KEWAUNEE LAKESHO 0124   52     180/  6/  8 1016.1
SHEBOYGAN LAKESH 0100   53     170/ 11/ 11 1016.9F
PORT WASHINGTON  0140   52     180/  3/  5 1018.6R
ATWATER BUOY     0107   49 48  180/  6/  6 1018.1    1
MILWAUKEE LAKESH 0130   50     160/  2/  3   N/A
KENOSHA   LAKESH 0100   51                 1017.9
$$

TC  - TEMPERATURE IN CELSIUS
VSB - VISIBILITY IN STATUTE MILES
WCI - WIND CHILL INDEX
HX  - HEAT INDEX





USA.gov is the U.S. government's official web portal to all federal, state and local government web resources and services.